SCP
-0 -0 -0 -0 -0 0 -0 -0 -0 -0 -0 -0 -0 0 0 0 0 0 0 0 0 0 0 0 0 0 0 0 0 0 0 0 0 0 0 0 0 0 0 0 0 0 0 0 0 0 0 0 0 0 0 0 0 0
0 0 -0 0 0 -0 -0 -0 -0 -0 -0 -0 -0 0 0 -0 0 0 0 0 0 0 0 0 0 0 0 0 0 0 0 0 0 0 0 0 0 0 0 0 0 0 0 0 0 0 0 0 0 0 0 0 0 0
0 0 -0 -0 -0 -0 -0 -0 -0 -0 -0 0 0 0 0 0 0 0 0 0 0 0 0 0 0 0 0 0 0 0 0 0 0 0 0 0 0 0 0 0 0 0 0 0 0 0 0 0 0 0 0 0 0 0
0 0 0 -0 0 -0 -0 0 -0 -0 0 0 0 0 0 0 0 0 0 0 0 0 0 0 0 0 0 0 0 0 0 0 0 0 0 0 0 0 0 0 0 0 0 0 0 0 0 0 0 0 0 0 0 0
-0 0 0 0 0 0 0 -0 -0 -0 -0 0 0 0 -0 0 0 0 0 0 0 0 0 0 0 0 0 0 0 0 0 0 0 0 0 0 0 0 0 0 0 0 0 0 0 0 0 0 0 0 0 0 0 0
-0 0 0 0 0 0 0 -0 -0 -0 -0 -0 -0 0 0 0 0 0 0 0 0 0 0 0 0 0 0 0 0 0 0 0 0 0 0 0 0 0 0 0 0 0 0 0 0 0 0 0 0 0 0 0 0 0
-0 -0 0 0 0 0 0 -0 -0 -0 -0 0 -0 0 0 0 0 0 0 0 0 0 0 0 0 0 0 0 0 0 0 0 0 0 0 0 0 0 0 0 0 0 0 0 0 0 0 0 0 0 0 0 0 0
-0 -0 -0 0 0 -0 0 0 0 -0 -0 -0 -0 0 -0 0 0 0 0 0 0 0 0 0 0 0 0 0 0 0 0 0 0 0 0 0 0 0 0 0 0 0 0 0 0 0 0 0 0 0 0 0 0 0
-0 -0 -0 -0 0 0 -0 -0 -0 -0 -0 -0 -0 0 0 0 0 0 0 -0 0 0 0 0 0 0 0 0 0 0 0 0 0 0 0 0 0 0 0 0 0 0 0 0 0 0 0 0 0 0 0 0 0 0
-0 -0 -0 -0 -0 0 0 -0 -0 0 0 -0 0 0 0 0 0 0 0 0 0 0 0 0 0 0 0 0 0 0 0 0 0 0 0 0 0 0 0 0 0 0 0 0 0 0 0 0 0 0 0 0 0 0
-0 -0 -0 -0 -0 0 0 0 0 0 0 -0 0 0 0 0 0 0 0 0 0 0 0 0 0 0 0 0 0 0 0 0 0 0 0 0 0 0 0 0 0 0 0 0 0 0 0 0 0 0 0 0 0 0
-0 -0 0 0 0 0 0 -0 0 0 0 0 0 0 0 0 0 -0 0 0 0 0 0 0 0 0 0 0 0 0 0 0 0 0 0 0 0 0 0 0 0 0 0 0 0 0 0 0 0 0 0 0 0 0
-0 -0 -0 -0 -0 0 -0 0 0 0 0 0 0 0 0 0 -0 0 0 0 0 0 0 0 0 0 0 0 0 0 0 0 0 0 0 0 0 0 0 0 0 0 -0 -0 -0 -0 0 0 0 -0 0 0 0 0
0 -0 -0 -0 -0 0 -0 0 -0 0 0 0 0 -0 0 0 0 0 0 0 0 0 -0 -0 0 0 0 0 0 0 0 0 0 0 0 0 0 -0 -0 -0 -0 -0 -0 0 0 0 0 0 0 0 0 0 0 0
0 0 -0 -0 -0 -0 -0 -0 -0 0 0 0 0 0 0 0 0 0 0 -0 0 0 0 0 0 0 0 0 0 0 0 0 0 0 0 -0 -0 -0 -0 -0 -0 -0 0 0 0 0 0 0 0 0 0 0 0 0
0 0 -0 -0 -0 -0 -0 -0 -0 0 0 0 -0 0 0 0 0 0 0 0 0 0 -0 0 0 0 0 0 0 0 0 0 0 -0 -0 -0 -0 -0 -0 -0 -0 -0 0 0 0 0 0 0 0 0 0 0 0 0
0 0 -0 -0 -0 -0 -0 0 -0 -0 -0 -0 0 0 0 0 0 0 0 0 0 0 0 0 0 0 0 0 0 0 0 -0 -0 -0 -0 -0 -0 -0 -0 -0 -0 -0 -0 0 0 0 0 0 0 0 0 0 0 0
0 0 -0 -0 0 0 0 -0 -0 -0 -0 0 0 0 0 0 0 0 0 0 0 0 0 0 0 0 0 0 0 -0 -0 -0 -0 -0 -0 -0 -0 -0 0 0 0 0 0 0 0 0 0 0 0 0 0 0 0 0
0 -0 -0 -0 0 0 0 0 0 0 0 0 0 0 0 0 0 0 0 0 -0 -0 0 0 0 0 0 0 -0 -0 -0 -0 -0 -0 -0 -0 -0 0 0 0 0 0 0 0 0 0 0 0 0 0 0 0 0 0
-0 -0 -0 -0 -0 -0 -0 -0 0 -0 0 0 0 0 0 0 0 0 0 0 -0 0 0 0 0 -0 -0 -0 -0 -0 -0 -0 0 -0 -0 -0 0 0 0 0 0 0 0 0 0 0 0 0 0 0 0 0 0 0
-0 -0 -0 -0 -0 -0 -0 0 -0 0 0 0 0 0 0 0 0 0 0 0 0 0 0 0 -0 -0 -0 -0 -0 -0 0 0 0 0 0 0 0 0 0 0 0 0 0 0 0 0 0 0 0 0 0 0 0 0
0 -0 -0 -0 -0 -0 -0 0 0 0 0 0 0 0 0 0 0 0 0 0 0 -0 -0 -0 -0 -0 -0 -0 -0 0 0 0 0 0 0 0 0 0 0 0 0 0 0 0 0 0 0 0 0 0 0 0 0 0
0 0 0 -0 0 0 0 0 -0 0 0 0 0 0 0 0 -0 -0 -0 -0 -0 -0 -0 -0 -0 -0 -0 -0 -0 0 0 0 0 0 0 0 0 0 0 0 0 0 0 0 0 0 0 0 0 0 0 0 0 0
-0 -0 -0 -0 -0 -0 -0 -0 -0 -0 -0 -0 0 0 0 0 0 -0 0 0 0 0 0 -0 0 0 -0 -0 0 0 0 0 0 0 0 0 0 0 0 0 0 0 0 0 0 0 0 0 0 0 0 0 0 0
0 0 0 0 0 0 -0 -0 -0 -0 0 0 0 0 0 0 0 0 0 0 0 0 0 0 0 0 0 0 0 0 0 0 0 0 0 0 0 0 0 0 0 0 0 0 0 0 0 0 0 0 0 0 0 0
0 0 0 0 0 0 0 0 0 0 0 0 0 0 0 0 0 0 0 0 0 0 0 0 0 0 0 0 0 0 0 0 0 0 0 0 0 0 0 0 0 0 0 0 0 0 0 0 0 0 0 0 0 0
0 0 0 0 0 0 0 0 0 0 0 0 0 0 0 0 0 0 0 0 0 0 0 0 0 0 0 0 0 0 0 0 0 0 0 0 0 0 0 0 0 0 0 0 0 0 0 0 0 0 0 0 0 0
0 0 0 0 0 0 0 0 0 0 0 0 0 0 0 0 0 0 0 0 0 0 0 0 0 0 0 0 0 0 0 0 0 0 0 0 0 0 0 0 0 0 0 0 0 0 0 0 0 0 0 0 0 0
0 0 0 0 0 0 0 0 0 0 0 0 0 0 0 0 0 0 0 0 0 0 0 0 0 0 0 0 0 0 0 0 0 0 0 0 0 0 0 0 0 0 0 0 0 0 0 0 0 0 0 0 0 0
0 0 0 0 0 0 0 0 0 0 0 0 0 0 0 0 0 0 0 0 0 0 0 0 0 0 0 0 0 0 0 0 0 0 0 0 0 0 0 0 0 0 0 0 0 0 0 0 0 0 0 0 0 0
0 0 0 0 0 0 0 0 0 0 0 0 0 0 0 0 -0 0 0 0 0 0 0 0 0 0 0 0 0 0 0 0 0 0 0 0 0 0 0 0 0 0 0 0 0 0 0 0 0 0 0 0 0 0
0 0 0 0 0 0 0 0 0 0 0 0 0 0 0 0 0 0 0 0 0 0 0 0 0 0 0 0 0 0 0 0 0 0 0 0 0 0 0 0 0 0 0 0 0 0 0 0 0 0 0 0 0 0
0 0 0 0 0 0 0 0 0 0 0 0 0 0 0 0 0 0 0 0 0 0 0 0 0 0 0 0 0 0 0 0 0 0 0 0 0 0 0 0 0 0 0 0 0 0 0 0 0 0 0 0 0 0
Wind_Speed_500mb
97 93 95 88 79 74 81 102 123 129 119 114 115 118 107 100 70 70 54 40 19 12 16 12 17 36 26 23 8 9 10 3 5 7 6 6 9 8 8 9 21 10 11 5 7 8 12 41 14 6 12 23 26 31
85 80 86 92 96 97 101 107 108 112 116 117 117 110 97 96 86 44 42 37 22 10 10 16 17 31 32 32 32 24 4 7 8 6 5 6 3 3 8 7 8 6 2 8 7 8 14 36 38 29 30 26 21 25
72 68 71 74 82 87 94 98 101 106 111 108 102 95 79 72 71 36 33 37 16 17 15 12 15 19 27 26 30 14 10 11 11 6 4 6 10 4 6 3 10 7 28 8 12 13 22 27 30 32 30 30 24 22
65 61 61 65 68 75 83 92 93 97 97 93 85 79 76 63 39 35 37 31 16 18 6 8 10 10 12 17 16 16 6 29 25 14 2 2 5 13 8 9 10 10 20 9 15 21 24 27 31 28 25 23 23 21
62 53 51 57 61 69 75 81 84 87 85 82 78 70 67 58 34 40 39 26 15 16 6 5 26 20 18 17 13 13 21 27 13 5 4 4 7 9 6 10 11 21 13 7 6 14 10 15 19 26 23 26 26 29
63 51 44 49 52 57 62 69 73 76 76 71 65 59 55 43 35 40 12 12 14 20 6 4 8 24 23 27 27 36 33 19 10 12 5 12 12 11 8 8 17 25 23 31 10 17 8 4 11 25 22 26 28 28
68 59 44 42 48 51 55 57 60 64 63 60 52 55 54 42 33 11 10 25 27 18 10 4 4 9 12 18 18 21 19 16 11 10 11 10 23 20 7 7 18 23 13 20 27 14 3 21 13 26 27 27 28 25
58 65 52 41 43 46 51 57 57 57 59 61 60 56 46 37 21 14 18 32 24 18 11 5 1 6 22 11 5 12 7 8 21 12 15 8 13 16 10 16 20 25 7 18 30 16 8 18 19 23 28 32 34 34
58 52 65 44 35 47 55 65 63 63 67 64 62 56 43 13 12 21 34 25 29 14 10 8 4 3 18 10 8 8 12 8 15 8 8 8 9 14 11 18 21 24 18 22 24 10 20 24 29 31 36 37 40 41
48 52 58 65 63 59 52 56 59 62 59 60 48 11 10 13 43 18 10 8 14 19 16 5 15 4 16 17 9 8 15 4 5 8 15 9 7 11 15 15 15 18 20 24 27 29 37 34 36 35 37 38 40 44
46 35 38 42 42 46 37 42 57 52 40 8 10 13 33 15 5 10 13 16 15 8 22 17 21 6 30 9 5 11 3 3 6 4 7 6 5 7 17 15 15 17 19 21 22 23 25 30 35 39 39 37 39 41
47 35 26 31 27 12 27 20 17 25 17 19 28 30 9 13 13 13 5 6 13 3 18 11 16 14 10 7 0 11 5 5 7 4 7 6 3 6 9 9 11 14 17 18 21 23 25 28 31 34 38 39 40 43
43 39 32 22 21 25 35 39 52 58 53 21 7 14 20 22 26 15 14 6 6 16 18 15 4 6 9 20 10 7 9 6 6 9 6 3 8 5 5 8 9 14 18 21 23 26 30 35 36 39 44 43 46 47
37 34 35 37 38 32 39 43 38 28 3 17 17 17 10 10 7 4 5 6 9 13 31 24 12 13 12 7 3 9 3 5 8 8 1 5 9 2 2 8 15 20 25 30 35 39 43 46 50 49 48 48 51 53
23 30 23 29 43 42 25 30 23 7 18 18 18 12 9 3 1 7 14 16 14 24 24 10 7 4 8 9 7 4 10 9 2 7 4 11 5 4 7 15 22 29 35 39 42 46 48 51 53 56 52 52 51 52
22 27 33 27 20 20 31 32 44 39 21 17 26 11 9 3 10 10 14 10 18 20 6 3 2 8 10 4 12 3 7 4 6 6 11 9 6 8 17 21 24 29 35 41 44 47 49 50 54 58 58 54 55 57
27 30 44 49 37 12 7 29 27 28 21 16 17 22 13 4 6 14 22 29 26 12 3 4 12 5 1 8 7 5 7 6 18 17 15 8 4 9 16 22 25 29 34 39 43 45 49 49 52 55 59 55 55 56
35 27 21 21 28 56 73 42 23 24 23 21 12 9 17 16 14 18 24 30 17 7 7 5 14 11 6 8 5 7 10 18 19 17 12 7 10 15 21 28 32 35 40 44 47 50 51 53 53 53 56 57 59 58
41 32 26 20 19 17 19 25 23 18 18 7 7 11 7 9 20 27 32 21 18 18 11 8 11 4 4 9 10 24 25 19 16 12 8 7 13 22 26 30 35 40 45 47 49 49 49 48 50 50 50 50 53 57
39 31 18 13 12 18 18 18 16 17 9 8 8 11 6 7 13 14 25 14 9 6 14 8 5 8 11 26 26 21 16 10 4 9 5 6 15 22 27 33 37 38 40 41 44 46 48 48 41 42 48 53 56 60
38 38 43 57 68 41 23 14 18 14 11 7 10 12 9 15 15 28 31 26 9 12 8 11 24 32 28 24 18 11 4 2 8 14 22 24 20 25 29 32 38 40 44 47 50 50 49 48 47 50 55 55 55 55
42 49 54 47 28 21 24 25 14 11 7 8 9 14 11 10 17 24 27 22 10 7 9 20 24 23 19 15 10 6 7 11 14 17 20 27 31 29 31 34 42 45 45 44 46 51 50 47 49 52 55 56 54 53
24 24 23 23 16 17 10 12 7 9 7 8 6 7 8 9 15 18 6 3 4 12 22 24 22 19 16 14 12 11 14 16 17 19 21 24 26 27 31 31 36 44 49 42 46 48 49 48 48 52 54 54 54 53
22 14 15 14 20 7 8 10 9 7 5 8 6 4 7 9 16 5 3 7 15 25 28 26 25 22 20 18 17 13 18 19 18 18 19 24 27 24 29 30 32 38 44 45 46 48 48 48 48 50 51 53 53 54
10 21 12 12 12 8 11 9 10 8 3 2 4 5 6 9 5 4 5 8 27 29 28 30 29 28 25 19 20 17 20 18 20 20 14 26 31 32 30 30 29 34 40 43 46 48 48 50 50 51 52 52 53 53
13 16 9 2 4 7 8 6 4 9 6 2 8 2 3 5 4 10 8 13 22 26 31 31 28 30 29 22 18 15 16 18 21 22 19 24 28 33 34 36 36 32 39 41 47 51 52 53 55 56 57 55 53 56
8 1 7 9 9 11 11 9 8 5 5 8 5 3 5 1 9 10 13 21 23 21 23 25 27 26 18 18 15 15 17 18 20 23 23 23 26 28 30 32 33 36 40 43 46 51 56 58 59 60 62 60 59 59
9 12 11 18 8 8 11 4 7 12 8 13 17 6 12 16 10 6 13 16 20 20 21 23 23 22 20 18 19 18 20 21 22 22 21 21 20 22 23 24 27 32 36 39 43 47 51 54 57 59 61 64 63 58
8 25 19 8 6 7 14 14 14 13 14 21 11 7 12 15 14 15 18 21 22 25 28 29 28 27 27 26 25 25 26 24 24 22 19 16 17 20 20 23 26 29 33 35 38 44 49 53 58 62 64 64 62 58
12 25 9 10 11 11 12 19 13 19 26 29 16 17 25 47 47 43 42 45 48 47 39 35 34 42 39 37 33 34 31 29 26 25 22 16 19 19 21 22 25 28 32 35 38 39 41 45 48 50 54 57 58 60
23 17 8 9 7 8 11 20 22 19 21 25 41 46 51 44 78 76 63 60 67 69 66 63 58 55 51 47 43 36 34 31 27 24 21 19 21 21 22 24 26 27 30 34 37 41 45 47 50 54 56 58 59 60
14 11 7 4 6 6 9 8 7 10 10 14 16 24 19 17 19 32 51 43 48 57 63 67 68 60 49 42 38 39 37 33 27 26 24 22 21 22 22 25 28 30 32 35 39 42 46 50 52 54 57 59 59 60
7 8 6 2 3 4 8 6 5 7 11 10 10 9 12 12 20 17 23 25 32 31 37 41 41 45 43 44 44 41 39 37 34 30 27 25 24 25 26 28 30 32 35 37 40 44 47 51 53 55 57 58 60 61
Wind_Direction_500mb
33 39 47 64 74 93 114 128 133 140 148 155 160 166 171 167 157 167 164 169 168 85 90 164 152 143 167 179 143 167 112 207 145 156 190 162 224 191 101 135 173 154 136 181 108 107 233 353 323 171 76 68 54 49
37 48 63 76 89 99 111 121 131 139 143 152 159 165 170 176 177 158 164 165 155 105 97 132 143 171 190 193 195 173 153 200 162 139 169 208 116 65 157 124 25 124 20 134 23 109 72 49 70 55 77 79 46 45
44 55 67 79 95 107 119 127 131 138 147 153 159 164 170 173 169 173 168 171 144 102 84 109 103 146 187 191 194 155 182 160 89 93 113 239 100 131 120 113 109 78 16 89 134 72 77 65 64 58 58 58 47 39
52 58 72 82 101 109 120 130 135 139 147 153 155 159 163 155 152 170 166 169 172 100 87 35 116 101 147 174 192 216 185 119 95 48 305 280 88 18 55 71 76 346 325 42 93 111 105 62 47 37 37 38 33 27
58 65 76 88 101 116 123 132 137 143 148 154 157 157 157 160 150 161 160 160 180 94 138 93 82 63 114 120 153 164 164 157 123 106 19 33 52 68 67 82 48 2 11 28 77 37 9 66 40 26 20 16 11 4
68 74 78 92 101 114 126 135 141 147 152 154 156 158 162 153 144 153 105 117 135 200 96 67 65 69 111 122 131 123 132 99 102 100 28 73 45 46 80 70 42 28 34 38 29 338 61 23 64 5 5 3 1 356
76 81 75 91 107 111 124 134 139 147 150 150 151 159 164 164 152 120 118 129 136 140 95 64 47 32 70 91 77 89 95 76 78 94 66 47 22 46 62 72 11 12 21 42 21 80 143 32 332 345 355 355 352 351
58 79 90 88 106 121 118 124 135 144 149 151 159 157 157 167 152 108 87 167 134 82 69 91 266 51 22 18 79 43 82 65 39 80 67 44 29 50 70 23 13 10 33 26 16 37 23 343 347 356 356 349 350 351
53 72 78 98 106 125 132 139 145 148 148 150 157 156 154 139 92 108 111 152 168 82 98 63 46 159 357 34 59 51 49 54 36 61 52 47 18 47 10 356 7 12 13 341 359 20 1 8 1 358 354 349 345 342
54 68 82 91 98 113 137 148 148 154 158 161 147 110 74 82 120 108 84 70 50 41 48 82 340 296 356 10 36 34 40 63 66 50 87 56 73 85 17 3 1 359 356 355 6 2 359 1 354 351 348 343 336 334
47 63 75 82 88 95 96 126 148 150 150 126 57 71 113 98 91 48 58 42 355 42 10 356 14 348 20 29 34 35 71 15 76 48 86 55 65 36 357 360 2 4 5 5 3 354 346 342 340 340 340 337 333 331
45 56 83 76 79 111 147 140 106 127 103 115 126 119 102 39 38 73 56 29 38 50 352 352 336 349 325 358 193 14 86 39 82 34 78 70 143 325 351 10 14 15 14 9 0 354 347 342 336 330 329 330 329 329
33 49 75 108 86 78 107 123 130 135 131 121 88 68 14 352 39 33 349 42 48 360 2 336 256 283 21 26 62 35 64 67 116 43 78 126 167 302 343 9 17 2 356 350 344 336 330 326 325 326 325 327 324 323
36 39 54 77 94 122 136 141 143 143 126 58 45 37 52 10 35 8 318 312 318 323 338 339 327 15 2 37 352 78 360 38 68 56 137 190 207 219 329 344 342 339 333 329 324 320 319 317 314 314 314 315 316 317
49 45 69 70 63 73 113 167 177 138 61 62 42 56 64 156 95 299 316 313 333 328 343 340 302 330 11 65 28 95 45 49 131 181 202 172 207 229 301 316 317 319 322 323 322 320 318 317 314 310 308 304 306 309
65 62 67 65 62 80 95 102 84 68 64 61 48 77 39 103 6 9 350 343 347 334 290 247 219 68 43 78 50 72 95 205 220 209 161 178 203 295 308 312 317 317 318 320 321 319 317 316 313 310 307 306 303 303
69 64 65 64 56 47 152 59 53 52 54 53 40 32 57 25 309 340 350 352 344 346 30 67 54 186 210 52 43 198 157 198 156 160 169 193 262 314 320 324 322 318 318 319 320 321 317 316 313 311 308 306 300 300
47 35 43 65 75 62 64 52 73 64 64 60 81 40 56 49 13 17 1 6 12 35 15 113 123 53 94 112 253 220 159 147 156 172 190 234 289 315 327 332 335 330 327 330 328 326 324 322 321 320 315 313 309 310
39 39 51 61 82 86 60 45 47 85 68 86 51 19 33 35 24 20 14 9 44 73 87 76 68 101 200 199 157 152 157 166 179 203 242 283 319 331 335 333 336 337 336 331 328 325 323 322 321 319 317 316 313 314
54 51 82 45 48 71 74 54 59 85 103 97 23 8 47 27 11 10 22 35 75 76 54 55 177 170 135 141 149 153 154 162 221 307 344 336 314 323 338 339 335 331 331 333 329 326 324 325 323 321 321 320 319 317
68 71 76 84 66 60 76 63 63 75 105 93 15 14 355 354 9 13 12 16 72 40 65 105 130 132 135 139 141 140 138 307 309 319 324 327 329 326 329 331 329 335 334 338 333 335 332 330 326 326 325 325 322 321
54 65 54 49 59 66 64 41 75 83 66 63 27 13 22 10 357 3 355 29 53 50 114 148 148 151 154 157 170 189 244 278 296 306 307 308 313 318 325 332 331 336 336 338 332 335 338 335 329 327 327 326 324 323
19 34 45 40 71 55 60 52 62 43 71 6 9 30 3 1 351 353 30 62 130 165 165 169 175 180 190 211 232 254 274 286 295 297 296 298 307 319 323 335 331 330 333 344 336 339 340 339 335 331 330 328 326 325
35 55 39 45 45 86 82 53 58 72 75 35 50 351 319 316 333 22 223 233 201 197 197 195 199 208 225 241 252 249 258 279 291 296 297 306 319 333 332 339 337 331 331 340 342 342 342 340 338 336 334 331 330 328
60 15 40 32 51 81 48 17 1 48 79 319 61 332 324 338 21 351 234 244 212 212 206 210 216 223 236 238 245 249 260 282 298 313 316 318 325 331 338 338 340 333 338 340 343 344 346 343 342 339 338 337 334 333
71 12 51 82 13 98 183 107 172 180 146 134 227 283 2 75 48 247 231 212 207 212 215 219 220 224 234 241 249 253 268 286 299 311 321 318 321 324 330 334 336 338 337 338 339 341 343 343 343 342 343 343 341 336
89 160 100 89 92 110 86 95 117 108 135 186 210 97 67 82 247 248 219 208 211 214 215 213 218 224 225 230 251 263 284 296 303 308 312 311 311 314 319 324 329 330 335 338 339 338 339 340 340 340 339 341 342 340
109 150 142 151 133 145 132 114 153 196 210 170 146 184 183 199 236 220 204 207 211 220 219 221 224 228 231 240 253 266 277 288 296 299 301 303 303 309 315 322 329 333 338 340 339 339 339 339 339 339 340 340 343 342
118 143 135 92 131 194 209 183 207 198 189 176 174 227 239 231 235 228 233 236 240 239 239 239 239 241 244 247 253 259 266 272 278 284 288 289 289 300 316 326 333 336 339 342 342 340 340 342 344 343 342 340 341 341
155 162 140 156 155 217 194 197 202 203 202 210 233 262 264 266 271 267 264 259 255 258 261 255 248 246 249 250 252 252 255 260 262 266 274 282 291 305 315 324 331 336 340 342 344 346 345 345 345 346 347 348 348 348
157 169 150 181 220 216 220 219 229 239 244 248 247 251 260 278 284 287 277 267 259 253 249 247 244 243 244 244 244 246 247 255 257 258 261 268 278 291 303 314 322 330 335 338 339 341 343 346 347 348 350 352 352 350
163 184 166 182 235 234 216 216 238 243 249 243 251 245 267 270 273 284 279 270 254 245 240 239 240 242 242 242 239 237 241 246 249 253 260 266 271 281 295 306 314 320 325 329 332 335 337 338 342 344 345 348 350 350
152 172 189 232 206 213 209 223 249 276 254 261 262 258 239 248 254 259 273 273 263 257 239 238 241 239 234 231 231 233 236 239 245 251 258 265 272 281 291 298 304 309 315 320 325 327 331 332 336 338 339 341 344 345
Wind_Speed_850mb
97 93 95 88 79 74 81 102 123 129 119 114 115 118 107 100 70 70 54 40 19 12 16 12 17 36 26 23 8 9 10 3 5 7 6 6 9 8 8 9 21 10 11 5 7 8 12 41 14 6 12 23 26 31
85 80 86 92 96 97 101 107 108 112 116 117 117 110 97 96 86 44 42 37 22 10 10 16 17 31 32 32 32 24 4 7 8 6 5 6 3 3 8 7 8 6 2 8 7 8 14 36 38 29 30 26 21 25
72 68 71 74 82 87 94 98 101 106 111 108 102 95 79 72 71 36 33 37 16 17 15 12 15 19 27 26 30 14 10 11 11 6 4 6 10 4 6 3 10 7 28 8 12 13 22 27 30 32 30 30 24 22
65 61 61 65 68 75 83 92 93 97 97 93 85 79 76 63 39 35 37 31 16 18 6 8 10 10 12 17 16 16 6 29 25 14 2 2 5 13 8 9 10 10 20 9 15 21 24 27 31 28 25 23 23 21
62 53 51 57 61 69 75 81 84 87 85 82 78 70 67 58 34 40 39 26 15 16 6 5 26 20 18 17 13 13 21 27 13 5 4 4 7 9 6 10 11 21 13 7 6 14 10 15 19 26 23 26 26 29
63 51 44 49 52 57 62 69 73 76 76 71 65 59 55 43 35 40 12 12 14 20 6 4 8 24 23 27 27 36 33 19 10 12 5 12 12 11 8 8 17 25 23 31 10 17 8 4 11 25 22 26 28 28
68 59 44 42 48 51 55 57 60 64 63 60 52 55 54 42 33 11 10 25 27 18 10 4 4 9 12 18 18 21 19 16 11 10 11 10 23 20 7 7 18 23 13 20 27 14 3 21 13 26 27 27 28 25
58 65 52 41 43 46 51 57 57 57 59 61 60 56 46 37 21 14 18 32 24 18 11 5 1 6 22 11 5 12 7 8 21 12 15 8 13 16 10 16 20 25 7 18 30 16 8 18 19 23 28 32 34 34
58 52 65 44 35 47 55 65 63 63 67 64 62 56 43 13 12 21 34 25 29 14 10 8 4 3 18 10 8 8 12 8 15 8 8 8 9 14 11 18 21 24 18 22 24 10 20 24 29 31 36 37 40 41
48 52 58 65 63 59 52 56 59 62 59 60 48 11 10 13 43 18 10 8 14 19 16 5 15 4 16 17 9 8 15 4 5 8 15 9 7 11 15 15 15 18 20 24 27 29 37 34 36 35 37 38 40 44
46 35 38 42 42 46 37 42 57 52 40 8 10 13 33 15 5 10 13 16 15 8 22 17 21 6 30 9 5 11 3 3 6 4 7 6 5 7 17 15 15 17 19 21 22 23 25 30 35 39 39 37 39 41
47 35 26 31 27 12 27 20 17 25 17 19 28 30 9 13 13 13 5 6 13 3 18 11 16 14 10 7 0 11 5 5 7 4 7 6 3 6 9 9 11 14 17 18 21 23 25 28 31 34 38 39 40 43
43 39 32 22 21 25 35 39 52 58 53 21 7 14 20 22 26 15 14 6 6 16 18 15 4 6 9 20 10 7 9 6 6 9 6 3 8 5 5 8 9 14 18 21 23 26 30 35 36 39 44 43 46 47
37 34 35 37 38 32 39 43 38 28 3 17 17 17 10 10 7 4 5 6 9 13 31 24 12 13 12 7 3 9 3 5 8 8 1 5 9 2 2 8 15 20 25 30 35 39 43 46 50 49 48 48 51 53
23 30 23 29 43 42 25 30 23 7 18 18 18 12 9 3 1 7 14 16 14 24 24 10 7 4 8 9 7 4 10 9 2 7 4 11 5 4 7 15 22 29 35 39 42 46 48 51 53 56 52 52 51 52
22 27 33 27 20 20 31 32 44 39 21 17 26 11 9 3 10 10 14 10 18 20 6 3 2 8 10 4 12 3 7 4 6 6 11 9 6 8 17 21 24 29 35 41 44 47 49 50 54 58 58 54 55 57
27 30 44 49 37 12 7 29 27 28 21 16 17 22 13 4 6 14 22 29 26 12 3 4 12 5 1 8 7 5 7 6 18 17 15 8 4 9 16 22 25 29 34 39 43 45 49 49 52 55 59 55 55 56
35 27 21 21 28 56 73 42 23 24 23 21 12 9 17 16 14 18 24 30 17 7 7 5 14 11 6 8 5 7 10 18 19 17 12 7 10 15 21 28 32 35 40 44 47 50 51 53 53 53 56 57 59 58
41 32 26 20 19 17 19 25 23 18 18 7 7 11 7 9 20 27 32 21 18 18 11 8 11 4 4 9 10 24 25 19 16 12 8 7 13 22 26 30 35 40 45 47 49 49 49 48 50 50 50 50 53 57
39 31 18 13 12 18 18 18 16 17 9 8 8 11 6 7 13 14 25 14 9 6 14 8 5 8 11 26 26 21 16 10 4 9 5 6 15 22 27 33 37 38 40 41 44 46 48 48 41 42 48 53 56 60
38 38 43 57 68 41 23 14 18 14 11 7 10 12 9 15 15 28 31 26 9 12 8 11 24 32 28 24 18 11 4 2 8 14 22 24 20 25 29 32 38 40 44 47 50 50 49 48 47 50 55 55 55 55
42 49 54 47 28 21 24 25 14 11 7 8 9 14 11 10 17 24 27 22 10 7 9 20 24 23 19 15 10 6 7 11 14 17 20 27 31 29 31 34 42 45 45 44 46 51 50 47 49 52 55 56 54 53
24 24 23 23 16 17 10 12 7 9 7 8 6 7 8 9 15 18 6 3 4 12 22 24 22 19 16 14 12 11 14 16 17 19 21 24 26 27 31 31 36 44 49 42 46 48 49 48 48 52 54 54 54 53
22 14 15 14 20 7 8 10 9 7 5 8 6 4 7 9 16 5 3 7 15 25 28 26 25 22 20 18 17 13 18 19 18 18 19 24 27 24 29 30 32 38 44 45 46 48 48 48 48 50 51 53 53 54
10 21 12 12 12 8 11 9 10 8 3 2 4 5 6 9 5 4 5 8 27 29 28 30 29 28 25 19 20 17 20 18 20 20 14 26 31 32 30 30 29 34 40 43 46 48 48 50 50 51 52 52 53 53
13 16 9 2 4 7 8 6 4 9 6 2 8 2 3 5 4 10 8 13 22 26 31 31 28 30 29 22 18 15 16 18 21 22 19 24 28 33 34 36 36 32 39 41 47 51 52 53 55 56 57 55 53 56
8 1 7 9 9 11 11 9 8 5 5 8 5 3 5 1 9 10 13 21 23 21 23 25 27 26 18 18 15 15 17 18 20 23 23 23 26 28 30 32 33 36 40 43 46 51 56 58 59 60 62 60 59 59
9 12 11 18 8 8 11 4 7 12 8 13 17 6 12 16 10 6 13 16 20 20 21 23 23 22 20 18 19 18 20 21 22 22 21 21 20 22 23 24 27 32 36 39 43 47 51 54 57 59 61 64 63 58
8 25 19 8 6 7 14 14 14 13 14 21 11 7 12 15 14 15 18 21 22 25 28 29 28 27 27 26 25 25 26 24 24 22 19 16 17 20 20 23 26 29 33 35 38 44 49 53 58 62 64 64 62 58
12 25 9 10 11 11 12 19 13 19 26 29 16 17 25 47 47 43 42 45 48 47 39 35 34 42 39 37 33 34 31 29 26 25 22 16 19 19 21 22 25 28 32 35 38 39 41 45 48 50 54 57 58 60
23 17 8 9 7 8 11 20 22 19 21 25 41 46 51 44 78 76 63 60 67 69 66 63 58 55 51 47 43 36 34 31 27 24 21 19 21 21 22 24 26 27 30 34 37 41 45 47 50 54 56 58 59 60
14 11 7 4 6 6 9 8 7 10 10 14 16 24 19 17 19 32 51 43 48 57 63 67 68 60 49 42 38 39 37 33 27 26 24 22 21 22 22 25 28 30 32 35 39 42 46 50 52 54 57 59 59 60
7 8 6 2 3 4 8 6 5 7 11 10 10 9 12 12 20 17 23 25 32 31 37 41 41 45 43 44 44 41 39 37 34 30 27 25 24 25 26 28 30 32 35 37 40 44 47 51 53 55 57 58 60 61
Wind_Direction_850mb
33 39 47 64 74 93 114 128 133 140 148 155 160 166 171 167 157 167 164 169 168 85 90 164 152 143 167 179 143 167 112 207 145 156 190 162 224 191 101 135 173 154 136 181 108 107 233 353 323 171 76 68 54 49
37 48 63 76 89 99 111 121 131 139 143 152 159 165 170 176 177 158 164 165 155 105 97 132 143 171 190 193 195 173 153 200 162 139 169 208 116 65 157 124 25 124 20 134 23 109 72 49 70 55 77 79 46 45
44 55 67 79 95 107 119 127 131 138 147 153 159 164 170 173 169 173 168 171 144 102 84 109 103 146 187 191 194 155 182 160 89 93 113 239 100 131 120 113 109 78 16 89 134 72 77 65 64 58 58 58 47 39
52 58 72 82 101 109 120 130 135 139 147 153 155 159 163 155 152 170 166 169 172 100 87 35 116 101 147 174 192 216 185 119 95 48 305 280 88 18 55 71 76 346 325 42 93 111 105 62 47 37 37 38 33 27
58 65 76 88 101 116 123 132 137 143 148 154 157 157 157 160 150 161 160 160 180 94 138 93 82 63 114 120 153 164 164 157 123 106 19 33 52 68 67 82 48 2 11 28 77 37 9 66 40 26 20 16 11 4
68 74 78 92 101 114 126 135 141 147 152 154 156 158 162 153 144 153 105 117 135 200 96 67 65 69 111 122 131 123 132 99 102 100 28 73 45 46 80 70 42 28 34 38 29 338 61 23 64 5 5 3 1 356
76 81 75 91 107 111 124 134 139 147 150 150 151 159 164 164 152 120 118 129 136 140 95 64 47 32 70 91 77 89 95 76 78 94 66 47 22 46 62 72 11 12 21 42 21 80 143 32 332 345 355 355 352 351
58 79 90 88 106 121 118 124 135 144 149 151 159 157 157 167 152 108 87 167 134 82 69 91 266 51 22 18 79 43 82 65 39 80 67 44 29 50 70 23 13 10 33 26 16 37 23 343 347 356 356 349 350 351
53 72 78 98 106 125 132 139 145 148 148 150 157 156 154 139 92 108 111 152 168 82 98 63 46 159 357 34 59 51 49 54 36 61 52 47 18 47 10 356 7 12 13 341 359 20 1 8 1 358 354 349 345 342
54 68 82 91 98 113 137 148 148 154 158 161 147 110 74 82 120 108 84 70 50 41 48 82 340 296 356 10 36 34 40 63 66 50 87 56 73 85 17 3 1 359 356 355 6 2 359 1 354 351 348 343 336 334
47 63 75 82 88 95 96 126 148 150 150 126 57 71 113 98 91 48 58 42 355 42 10 356 14 348 20 29 34 35 71 15 76 48 86 55 65 36 357 360 2 4 5 5 3 354 346 342 340 340 340 337 333 331
45 56 83 76 79 111 147 140 106 127 103 115 126 119 102 39 38 73 56 29 38 50 352 352 336 349 325 358 193 14 86 39 82 34 78 70 143 325 351 10 14 15 14 9 0 354 347 342 336 330 329 330 329 329
33 49 75 108 86 78 107 123 130 135 131 121 88 68 14 352 39 33 349 42 48 360 2 336 256 283 21 26 62 35 64 67 116 43 78 126 167 302 343 9 17 2 356 350 344 336 330 326 325 326 325 327 324 323
36 39 54 77 94 122 136 141 143 143 126 58 45 37 52 10 35 8 318 312 318 323 338 339 327 15 2 37 352 78 360 38 68 56 137 190 207 219 329 344 342 339 333 329 324 320 319 317 314 314 314 315 316 317
49 45 69 70 63 73 113 167 177 138 61 62 42 56 64 156 95 299 316 313 333 328 343 340 302 330 11 65 28 95 45 49 131 181 202 172 207 229 301 316 317 319 322 323 322 320 318 317 314 310 308 304 306 309
65 62 67 65 62 80 95 102 84 68 64 61 48 77 39 103 6 9 350 343 347 334 290 247 219 68 43 78 50 72 95 205 220 209 161 178 203 295 308 312 317 317 318 320 321 319 317 316 313 310 307 306 303 303
69 64 65 64 56 47 152 59 53 52 54 53 40 32 57 25 309 340 350 352 344 346 30 67 54 186 210 52 43 198 157 198 156 160 169 193 262 314 320 324 322 318 318 319 320 321 317 316 313 311 308 306 300 300
47 35 43 65 75 62 64 52 73 64 64 60 81 40 56 49 13 17 1 6 12 35 15 113 123 53 94 112 253 220 159 147 156 172 190 234 289 315 327 332 335 330 327 330 328 326 324 322 321 320 315 313 309 310
39 39 51 61 82 86 60 45 47 85 68 86 51 19 33 35 24 20 14 9 44 73 87 76 68 101 200 199 157 152 157 166 179 203 242 283 319 331 335 333 336 337 336 331 328 325 323 322 321 319 317 316 313 314
54 51 82 45 48 71 74 54 59 85 103 97 23 8 47 27 11 10 22 35 75 76 54 55 177 170 135 141 149 153 154 162 221 307 344 336 314 323 338 339 335 331 331 333 329 326 324 325 323 321 321 320 319 317
68 71 76 84 66 60 76 63 63 75 105 93 15 14 355 354 9 13 12 16 72 40 65 105 130 132 135 139 141 140 138 307 309 319 324 327 329 326 329 331 329 335 334 338 333 335 332 330 326 326 325 325 322 321
54 65 54 49 59 66 64 41 75 83 66 63 27 13 22 10 357 3 355 29 53 50 114 148 148 151 154 157 170 189 244 278 296 306 307 308 313 318 325 332 331 336 336 338 332 335 338 335 329 327 327 326 324 323
19 34 45 40 71 55 60 52 62 43 71 6 9 30 3 1 351 353 30 62 130 165 165 169 175 180 190 211 232 254 274 286 295 297 296 298 307 319 323 335 331 330 333 344 336 339 340 339 335 331 330 328 326 325
35 55 39 45 45 86 82 53 58 72 75 35 50 351 319 316 333 22 223 233 201 197 197 195 199 208 225 241 252 249 258 279 291 296 297 306 319 333 332 339 337 331 331 340 342 342 342 340 338 336 334 331 330 328
60 15 40 32 51 81 48 17 1 48 79 319 61 332 324 338 21 351 234 244 212 212 206 210 216 223 236 238 245 249 260 282 298 313 316 318 325 331 338 338 340 333 338 340 343 344 346 343 342 339 338 337 334 333
71 12 51 82 13 98 183 107 172 180 146 134 227 283 2 75 48 247 231 212 207 212 215 219 220 224 234 241 249 253 268 286 299 311 321 318 321 324 330 334 336 338 337 338 339 341 343 343 343 342 343 343 341 336
89 160 100 89 92 110 86 95 117 108 135 186 210 97 67 82 247 248 219 208 211 214 215 213 218 224 225 230 251 263 284 296 303 308 312 311 311 314 319 324 329 330 335 338 339 338 339 340 340 340 339 341 342 340
109 150 142 151 133 145 132 114 153 196 210 170 146 184 183 199 236 220 204 207 211 220 219 221 224 228 231 240 253 266 277 288 296 299 301 303 303 309 315 322 329 333 338 340 339 339 339 339 339 339 340 340 343 342
118 143 135 92 131 194 209 183 207 198 189 176 174 227 239 231 235 228 233 236 240 239 239 239 239 241 244 247 253 259 266 272 278 284 288 289 289 300 316 326 333 336 339 342 342 340 340 342 344 343 342 340 341 341
155 162 140 156 155 217 194 197 202 203 202 210 233 262 264 266 271 267 264 259 255 258 261 255 248 246 249 250 252 252 255 260 262 266 274 282 291 305 315 324 331 336 340 342 344 346 345 345 345 346 347 348 348 348
157 169 150 181 220 216 220 219 229 239 244 248 247 251 260 278 284 287 277 267 259 253 249 247 244 243 244 244 244 246 247 255 257 258 261 268 278 291 303 314 322 330 335 338 339 341 343 346 347 348 350 352 352 350
163 184 166 182 235 234 216 216 238 243 249 243 251 245 267 270 273 284 279 270 254 245 240 239 240 242 242 242 239 237 241 246 249 253 260 266 271 281 295 306 314 320 325 329 332 335 337 338 342 344 345 348 350 350
152 172 189 232 206 213 209 223 249 276 254 261 262 258 239 248 254 259 273 273 263 257 239 238 241 239 234 231 231 233 236 239 245 251 258 265 272 281 291 298 304 309 315 320 325 327 331 332 336 338 339 341 344 345